• In Hungary
  • List of Countries
  • For 7 days
  • Water Temperature
  • Satellite Maps
  • Weather Map
  • News
  • Weather Widgets
  • user-avatar
    Login

    Hourly Weather Puerto Viejo

    Today, 12 December, Tuesday

    Time Temperature Precipitation Wind Pressure Humidity
    00:00 +22°C° 0 mm 1 mps 751 mmHg 92%
    01:00 +22°C° 0.1 mm 1 mps 751 mmHg 92%
    02:00 +22°C° 0.1 mm 1 mps 751 mmHg 93%
    03:00 +22°C° 0.1 mm 1 mps 751 mmHg 93%
    04:00 +22°C° 0 mm 1 mps 751 mmHg 93%
    05:00 +21°C° 0 mm 1 mps 751 mmHg 93%
    06:00 +21°C° 0 mm 1 mps 751 mmHg 91%
    07:00 +22°C° 0 mm 1 mps 751 mmHg 87%
    08:00 +23°C° 0 mm 2 mps 751 mmHg 83%
    09:00 +25°C° 0 mm 2 mps 752 mmHg 79%
    10:00 +26°C° 0 mm 2 mps 751 mmHg 73%
    11:00 +27°C° 0 mm 2 mps 751 mmHg 68%
    12:00 +28°C° 0 mm 2 mps 750 mmHg 63%
    13:00 +28°C° 0 mm 2 mps 750 mmHg 63%
    14:00 +28°C° 0 mm 2 mps 750 mmHg 64%
    15:00 +28°C° 0 mm 2 mps 749 mmHg 65%
    16:00 +27°C° 0 mm 2 mps 749 mmHg 71%
    17:00 +26°C° 0 mm 2 mps 750 mmHg 76%
    18:00 +24°C° 0 mm 1 mps 750 mmHg 82%
    19:00 +24°C° 0.1 mm 1 mps 750 mmHg 84%
    20:00 +24°C° 0.1 mm 1 mps 751 mmHg 86%
    21:00 +23°C° 0.1 mm 1 mps 751 mmHg 88%
    22:00 +23°C° 0.2 mm 1 mps 751 mmHg 90%
    23:00 +23°C° 0.2 mm 1 mps 751 mmHg 91%

    Tomorrow, 13 December, Wednesday

    Time Temperature Precipitation Wind Pressure Humidity
    00:00 +23°C° 0.2 mm 1 mps 751 mmHg 93%
    01:00 +23°C° 0.1 mm 1 mps 751 mmHg 94%
    02:00 +23°C° 0.1 mm 1 mps 751 mmHg 94%
    03:00 +22°C° 0.1 mm 1 mps 750 mmHg 95%
    04:00 +22°C° 0.1 mm 1 mps 751 mmHg 95%
    05:00 +22°C° 0.1 mm 1 mps 751 mmHg 95%
    06:00 +22°C° 0.1 mm 1 mps 751 mmHg 94%
    07:00 +23°C° 0.1 mm 1 mps 751 mmHg 90%
    08:00 +24°C° 0.1 mm 1 mps 752 mmHg 85%
    09:00 +25°C° 0.1 mm 1 mps 752 mmHg 80%
    10:00 +25°C° 0 mm 1 mps 752 mmHg 78%
    11:00 +26°C° 0 mm 1 mps 752 mmHg 76%
    12:00 +26°C° 0 mm 1 mps 751 mmHg 73%
    13:00 +26°C° 0 mm 2 mps 751 mmHg 74%
    14:00 +26°C° 0 mm 2 mps 750 mmHg 74%
    15:00 +26°C° 0 mm 2 mps 750 mmHg 75%
    16:00 +25°C° 0.1 mm 2 mps 750 mmHg 79%
    17:00 +24°C° 0.1 mm 2 mps 750 mmHg 83%
    18:00 +23°C° 0.1 mm 1 mps 750 mmHg 88%
    19:00 +23°C° 0.1 mm 1 mps 750 mmHg 89%
    20:00 +23°C° 0.1 mm 1 mps 751 mmHg 90%
    21:00 +23°C° 0.1 mm 1 mps 751 mmHg 90%
    22:00 +23°C° 0.2 mm 1 mps 751 mmHg 91%
    23:00 +23°C° 0.2 mm 1 mps 751 mmHg 91%

    Day after tomorrow, 14 December, Thursday

    Time Temperature Precipitation Wind Pressure Humidity
    00:00 +23°C° 0.2 mm 1 mps 750 mmHg 92%
    01:00 +23°C° 0.3 mm 1 mps 750 mmHg 92%
    02:00 +22°C° 0.3 mm 1 mps 750 mmHg 93%
    03:00 +22°C° 0.3 mm 1 mps 749 mmHg 93%
    04:00 +22°C° 0.3 mm 1 mps 749 mmHg 93%
    05:00 +22°C° 0.3 mm 1 mps 749 mmHg 94%
    06:00 +22°C° 0.3 mm 1 mps 749 mmHg 94%
    07:00 +22°C° 0.2 mm 1 mps 750 mmHg 92%
    08:00 +23°C° 0.2 mm 1 mps 750 mmHg 90%
    09:00 +23°C° 0.2 mm 1 mps 751 mmHg 88%
    10:00 +24°C° 0.1 mm 1 mps 750 mmHg 86%
    11:00 +24°C° 0.1 mm 1 mps 750 mmHg 85%
    12:00 +25°C° 0.1 mm 1 mps 750 mmHg 84%
    13:00 +25°C° 0.2 mm 1 mps 749 mmHg 86%
    14:00 +24°C° 0.2 mm 1 mps 748 mmHg 88%
    15:00 +24°C° 0.2 mm 1 mps 748 mmHg 90%
    16:00 +24°C° 0 mm 1 mps 748 mmHg 91%
    17:00 +23°C° 0 mm 1 mps 748 mmHg 93%
    18:00 +21°C° 0 mm 0 mps 748 mmHg 95%
    19:00 +21°C° 0 mm 0 mps 749 mmHg 95%
    20:00 +21°C° 0 mm 0 mps 749 mmHg 95%
    21:00 +21°C° 0 mm 0 mps 750 mmHg 96%
    22:00 +21°C° 0.1 mm 0 mps 750 mmHg 96%
    23:00 +21°C° 0.1 mm 0 mps 750 mmHg 96%

    15 December, Friday

    Time Temperature Precipitation Wind Pressure Humidity
    00:00 +21°C° 0.1 mm 0 mps 749 mmHg 96%
    01:00 +21°C° 0.1 mm 0 mps 749 mmHg 96%
    02:00 +21°C° 0.1 mm 0 mps 749 mmHg 96%
    03:00 +23°C° 0.1 mm 1 mps 748 mmHg 95%
    04:00 +23°C° 0 mm 1 mps 749 mmHg 95%
    05:00 +23°C° 0 mm 1 mps 749 mmHg 96%
    06:00 +23°C° 0 mm 1 mps 749 mmHg 96%
    07:00 +24°C° 0 mm 1 mps 750 mmHg 90%
    08:00 +26°C° 0 mm 1 mps 750 mmHg 85%
    09:00 +27°C° 0 mm 1 mps 750 mmHg 79%
    10:00 +28°C° 0.1 mm 1 mps 750 mmHg 74%
    11:00 +30°C° 0.1 mm 1 mps 749 mmHg 70%
    12:00 +31°C° 0.1 mm 1 mps 749 mmHg 65%
    13:00 +30°C° 0.3 mm 1 mps 748 mmHg 69%
    14:00 +29°C° 0.3 mm 1 mps 748 mmHg 73%
    15:00 +29°C° 0.3 mm 1 mps 747 mmHg 76%
    16:00 +27°C° 0.1 mm 1 mps 747 mmHg 82%
    17:00 +26°C° 0.1 mm 1 mps 747 mmHg 88%
    18:00 +23°C° 0.1 mm 0 mps 748 mmHg 94%
    19:00 +22°C° 0 mm 0 mps 748 mmHg 94%
    20:00 +22°C° 0 mm 0 mps 749 mmHg 94%
    21:00 +22°C° 0 mm 0 mps 750 mmHg 95%
    22:00 +21°C° 0 mm 0 mps 749 mmHg 95%
    23:00 +21°C° 0 mm 0 mps 749 mmHg 95%

    16 December, Saturday

    Time Temperature Precipitation Wind Pressure Humidity
    00:00 +21°C° 0 mm 0 mps 749 mmHg 95%
    01:00 +21°C° 0 mm 0 mps 749 mmHg 95%
    02:00 +21°C° 0 mm 0 mps 748 mmHg 94%
    03:00 +21°C° 0 mm 0 mps 748 mmHg 94%
    04:00 +21°C° 0 mm 0 mps 748 mmHg 93%
    05:00 +23°C° 0 mm 1 mps 749 mmHg 91%
    06:00 +23°C° 0 mm 1 mps 749 mmHg 89%
    07:00 +25°C° 0 mm 1 mps 750 mmHg 83%
    08:00 +27°C° 0 mm 1 mps 750 mmHg 77%
    09:00 +29°C° 0 mm 1 mps 750 mmHg 71%
    10:00 +30°C° 0.3 mm 2 mps 750 mmHg 70%
    11:00 +31°C° 0.3 mm 2 mps 749 mmHg 68%
    12:00 +31°C° 0.3 mm 3 mps 749 mmHg 66%
    13:00 +31°C° 0.3 mm 3 mps 748 mmHg 69%
    14:00 +30°C° 0.3 mm 3 mps 748 mmHg 71%
    15:00 +30°C° 0.3 mm 3 mps 747 mmHg 73%
    16:00 +28°C° 0.1 mm 2 mps 747 mmHg 80%
    17:00 +27°C° 0.1 mm 2 mps 748 mmHg 86%
    18:00 +25°C° 0.1 mm 1 mps 748 mmHg 92%
    19:00 +25°C° 0.1 mm 1 mps 748 mmHg 93%
    20:00 +24°C° 0.1 mm 1 mps 749 mmHg 93%
    21:00 +24°C° 0.1 mm 1 mps 749 mmHg 93%
    22:00 +24°C° 0 mm 1 mps 749 mmHg 93%
    23:00 +23°C° 0 mm 1 mps 749 mmHg 93%

    17 December, Sunday

    Time Temperature Precipitation Wind Pressure Humidity
    00:00 +23°C° 0 mm 1 mps 748 mmHg 92%
    01:00 +23°C° 0 mm 1 mps 748 mmHg 91%
    02:00 +23°C° 0 mm 1 mps 748 mmHg 90%
    03:00 +23°C° 0 mm 1 mps 747 mmHg 90%
    04:00 +23°C° 0.1 mm 1 mps 748 mmHg 90%
    05:00 +23°C° 0.1 mm 1 mps 748 mmHg 91%
    06:00 +23°C° 0.1 mm 1 mps 748 mmHg 91%
    07:00 +25°C° 0.1 mm 1 mps 749 mmHg 85%
    08:00 +27°C° 0.1 mm 2 mps 749 mmHg 79%
    09:00 +29°C° 0.1 mm 2 mps 750 mmHg 73%
    10:00 +30°C° 0.3 mm 3 mps 749 mmHg 70%
    11:00 +31°C° 0.3 mm 3 mps 749 mmHg 68%
    12:00 +33°C° 0.3 mm 3 mps 748 mmHg 65%
    13:00 +31°C° 0.2 mm 3 mps 747 mmHg 66%
    14:00 +31°C° 0.2 mm 3 mps 747 mmHg 68%
    15:00 +30°C° 0.2 mm 3 mps 746 mmHg 69%
    16:00 +29°C° 0.1 mm 3 mps 747 mmHg 76%
    17:00 +27°C° 0.1 mm 2 mps 747 mmHg 83%
    18:00 +25°C° 0.1 mm 1 mps 747 mmHg 90%
    19:00 +25°C° 0.2 mm 1 mps 748 mmHg 91%
    20:00 +25°C° 0.2 mm 1 mps 748 mmHg 92%
    21:00 +24°C° 0.2 mm 1 mps 749 mmHg 93%
    22:00 +24°C° 0.2 mm 1 mps 748 mmHg 93%
    23:00 +24°C° 0.2 mm 1 mps 748 mmHg 93%
    Show more